This demonstration page uses our WeatherBlox Daily Observations layout. Learn more.

Left ArrowRight Arrow

Hourly Observations for January 31, 2016

Temp ( °F °C ) Dew Point ( °F °C ) Humidity (%) Winds ( mph kmh ) Pressure ( in mb ) Visibility ( mi km ) Precip ( " mm )
12:51 am 00:51 Clear 51 10.6 27 -2.8 39 39 SSW 3 6 29.88 1012 10 16 N/A
1:51 am 01:51 Clear 44 6.7 27 -2.8 51 51 N N/A 29.88 1012 10 16 N/A
2:51 am 02:51 Clear 40 4.4 27 -2.8 60 60 N N/A 29.88 1012 10 16 N/A
3:51 am 03:51 Clear 41 5 27 -2.8 57 57 ESE 6 9 29.88 1012 10 16 N/A
4:51 am 04:51 Clear 40 4.4 27 -2.8 60 60 SE 5 7 29.87 1012 10 16 N/A
5:51 am 05:51 Clear 39 3.9 27 -2.8 62 62 N N/A 29.88 1012 10 16 N/A
6:51 am 06:51 Clear 38 3.3 27 -2.8 65 65 ESE 5 7 29.91 1013 10 16 N/A
7:51 am 07:51 Sunny 43 6.1 28 -2.2 56 56 E 7 11 29.91 1013 10 16 N/A
8:51 am 08:51 Sunny 57 13.9 30 -1.1 36 36 E 7 11 29.89 1012 10 16 N/A
9:51 am 09:51 Sunny 60 15.6 28 -2.2 30 30 ESE 9 15 29.89 1012 10 16 N/A
10:51 am 10:51 Sunny 63 17.2 28 -2.2 27 27 VRB 6 9 29.88 1012 10 16 N/A
11:51 am 11:51 Sunny 66 18.9 26 -3.3 22 22 SE 6 9 29.85 1011 10 16 N/A
12:51 pm 12:51 Sunny 69 20.6 23 -5 17 17 ESE 5 7 29.80 1009 10 16 N/A
1:51 pm 13:51 Sunny 71 21.7 23 -5 16 16 VRB 3 6 29.75 1008 10 16 N/A
2:51 pm 14:51 Mostly Cloudy 71 21.7 23 -5 16 16 N N/A 29.73 1007 10 16 N/A
3:51 pm 15:51 Sunny 72 22.2 23 -5 16 16 N N/A 29.68 1005 10 16 N/A
4:51 pm 16:51 Mostly Sunny 72 22.2 24 -4.4 17 17 WSW 8 13 29.66 1004 10 16 N/A
5:51 pm 17:51 Mostly Clear 69 20.6 22 -5.6 17 17 SW 17 28 29.67 1005 10 16 N/A
6:51 pm 18:51 Mostly Clear 67 19.4 25 -3.9 20 20 WSW 15 24 29.67 1005 10 16 N/A
7:51 pm 19:51 Clear 66 18.9 26 -3.3 22 22 WSW 14 22 29.64 1004 10 16 N/A
8:51 pm 20:51 Partly Cloudy 65 18.3 28 -2.2 25 25 SW 10 17 29.60 1003 10 16 N/A
9:51 pm 21:51 Mostly Cloudy with Light Rain 65 18.3 32 undefined 29 29 S 18 30 29.58 1002 10 16 N/A
10:51 pm 22:51 Mostly Cloudy with Light Rain 62 16.7 35 1.7 37 37 S 16 26 29.56 1001 10 16 N/A
11:51 pm 23:51 Cloudy with Light Rain 59 15 37 2.8 44 44 SW 22 35 29.56 1001 10 16 0.01 0.25

Powered by AerisWeather